Accueil
METAR-TAF:

METAR-TAF

Aéroports :

Aupaluk, Québec, Canada

latitude: 59-17-48N, longitude: 069-35-59W, altitude: 35 m

Observation

Le bulletin a été fait il y a 1 heure et 4 minutes, à 15:00 UTC
Vent 17 kt de sud-ouest
Température -30°C
Humidité 61%
Pression 1020 hPa
Visibilité: 24.1 km
Quelques nuages à une hauteur de 2500 ft
Chasse-neige basse

METAR: CYLA 211500Z 23017KT 15SM DRSN FEW025 M30/M35 A3013 RMK SC1 SC TR SLP210

Heure: 11:04 (16:04 UTC)


TAF: absent

Observations et prévisions météorologiques de plus de 4000 aéroports (messages METAR et TAF).

Les stations disponibles sont représentées par des disques jaunes et rouges sur la carte.

Passer la souris dessus pour voir le nom de la station.

Cliquer dessus pour voir les observations et prévisions météorologiques.

Pour changer de carte: cliquez sur les boutons verts avec une croix noire pour zoomer, sur le bouton vert avec un tiret pour effectuer un zoom arrière, ou sur les flèches vertes pour les cartes adjacentes.


METAR-TAF: